K4MZ Weather Reports


time (UTC)temp
F
wind
direction
speed
knots
gust
knots
rain 1hr
in
rain 24hr
in
rain mn
in
humidity
%
barometer
mb
20260505092611 50 0.0 0.0 0.00 0.00 0.00 77 1014.9
20260505091612 50 102 0.0 0.9 0.00 0.00 0.00 77 1014.7
20260505090551 50 100 0.0 0.9 0.00 0.00 0.00 76 1014.5
20260505085552 51 127 0.0 0.9 0.00 0.00 0.00 76 1014.4
20260505084531 51 128 0.0 0.9 0.00 0.00 0.00 75 1014.3
20260505083552 51 88 0.0 0.9 0.00 0.00 0.00 74 1014.3
20260505082517 51 114 0.0 0.9 0.00 0.00 0.00 73 1014.3
20260505081617 51 94 0.0 0.9 0.00 0.00 0.00 72 1014.3
20260505080552 52 116 0.0 0.9 0.00 0.00 0.00 71 1014.2
20260505075532 52 89 0.0 0.9 0.00 0.00 0.00 70 1014.1
20260505074533 53 93 0.0 0.9 0.00 0.00 0.00 69 1013.9
20260505073558 53 136 0.0 0.9 0.00 0.00 0.00 69 1013.9
20260505072518 54 140 0.0 0.9 0.00 0.00 0.00 68 1013.9
20260505071518 55 120 0.0 0.9 0.00 0.00 0.00 67 1013.9
20260505070536 55 102 0.0 0.9 0.00 0.00 0.00 66 1013.8
20260505065517 55 107 0.0 0.9 0.00 0.00 0.00 65 1013.8
20260505064537 55 114 0.9 1.7 0.00 0.00 0.00 65 1013.8
20260505063537 55 103 0.9 0.9 0.00 0.00 0.00 64 1013.7
20260505062540 56 98 0.9 1.7 0.00 0.00 0.00 63 1013.8
20260505061539 55 113 0.9 1.7 0.00 0.00 0.00 63 1013.8
20260505060519 55 107 0.0 1.7 0.00 0.00 0.00 64 1013.8
20260505055518 55 121 0.0 0.9 0.00 0.00 0.00 64 1013.8
20260505054518 55 92 0.9 2.6 0.00 0.00 0.00 63 1013.8
20260505053520 56 90 0.0 0.9 0.00 0.00 0.00 62 1013.8
20260505052538 56 115 0.9 1.7 0.00 0.00 0.00 61 1013.8
20260505051601 56 111 0.0 0.9 0.00 0.00 0.00 61 1013.8
20260505050519 57 0.0 0.0 0.00 0.00 0.00 60 1013.8
20260505041640 60 117 0.9 1.7 0.00 0.00 0.00 57 1013.6
20260505040520 60 111 0.9 1.7 0.00 0.00 0.00 58 1013.6
20260505035520 60 119 0.9 1.7 0.00 0.00 0.00 58 1013.5
20260505034540 59 106 0.9 1.7 0.00 0.00 0.00 59 1013.6
20260505033520 59 104 0.9 2.6 0.00 0.00 0.00 61 1013.5
20260505032540 58 114 0.9 1.7 0.00 0.00 0.00 62 1013.6
20260505031521 59 122 0.9 0.9 0.00 0.00 0.00 62 1013.6
20260505030601 59 111 0.0 0.9 0.00 0.00 0.00 61 1013.5
20260505025521 59 131 0.9 0.9 0.00 0.00 0.00 61 1013.5
20260505024521 60 129 0.0 0.9 0.00 0.00 0.00 60 1013.5
20260505023542 60 86 0.0 0.0 0.00 0.00 0.00 60 1013.5
20260505022602 60 88 0.9 1.7 0.00 0.00 0.00 60 1013.5
20260505021522 60 108 0.0 0.9 0.00 0.00 0.00 60 1013.5
20260505020621 61 121 0.0 0.9 0.00 0.00 0.00 60 1013.5
20260505015518 61 117 0.0 0.9 0.00 0.00 0.00 59 1013.5
20260505014518 61 109 0.0 0.9 0.00 0.00 0.00 58 1013.5
20260505013519 62 127 0.0 0.9 0.00 0.00 0.00 58 1013.4
20260505012518 62 122 0.0 0.9 0.00 0.00 0.00 57 1013.2
20260505011542 63 120 0.0 1.7 0.00 0.00 0.00 56 1013.1
20260505010539 64 142 0.0 0.9 0.00 0.00 0.00 55 1013.0
20260505005619 64 125 0.0 0.9 0.00 0.00 0.00 54 1012.8
20260505004519 65 132 0.0 0.9 0.00 0.00 0.00 52 1012.7
20260505003559 66 129 0.0 0.9 0.00 0.00 0.00 51 1012.7
20260505002540 67 136 0.0 0.9 0.00 0.00 0.00 49 1012.7
20260505001600 69 139 0.0 1.7 0.00 0.00 0.00 48 1012.7
20260505000520 70 131 0.0 1.7 0.00 0.00 0.00 46 1012.6
20260504235600 71 131 0.0 1.7 0.00 0.00 0.00 45 1012.5
20260504234537 72 149 0.0 1.7 0.00 0.00 0.00 43 1012.4
20260504233517 73 112 0.0 0.9 0.00 0.00 0.00 41 1012.3
20260504232540 74 105 0.9 1.7 0.00 0.00 0.00 40 1012.3
20260504231518 75 96 0.9 1.7 0.00 0.00 0.00 39 1012.2
20260504230518 77 103 0.9 2.6 0.00 0.00 0.00 38 1012.2
20260504225518 77 84 1.7 3.5 0.00 0.00 0.00 37 1012.2
20260504224518 76 123 0.9 3.5 0.00 0.00 0.00 38 1012.2
20260504223519 76 103 0.9 3.5 0.00 0.00 0.00 39 1012.3
20260504222519 77 42 0.9 1.7 0.00 0.00 0.00 38 1012.4
20260504221619 77 94 0.0 1.7 0.00 0.00 0.00 38 1012.4
20260504220539 77 106 0.9 2.6 0.00 0.00 0.00 37 1012.4
20260504215516 77 126 0.9 2.6 0.00 0.00 0.00 37 1012.4
20260504214519 77 254 0.9 3.5 0.00 0.00 0.00 37 1012.4
20260504213604 79 19 1.7 5.2 0.00 0.00 0.00 35 1012.4
20260504212620 79 110 1.7 3.5 0.00 0.00 0.00 35 1012.3
20260504211520 78 108 1.7 5.2 0.00 0.00 0.00 36 1012.3
20260504210557 78 288 2.6 7.0 0.00 0.00 0.00 37 1012.4
20260504205541 77 51 1.7 6.1 0.00 0.00 0.00 37 1012.4
20260504204517 77 299 1.7 4.3 0.00 0.00 0.00 36 1012.4
20260504203618 79 102 2.6 6.1 0.00 0.00 0.00 35 1012.4
20260504202538 79 57 1.7 7.8 0.00 0.00 0.00 36 1012.5
20260504201521 78 90 1.7 5.2 0.00 0.00 0.00 37 1012.6
20260504200538 79 102 0.9 3.5 0.00 0.00 0.00 35 1012.8
20260504194519 77 126 1.7 4.3 0.00 0.00 0.00 37 1013.0
20260504193620 76 92 0.9 3.5 0.00 0.00 0.00 36 1013.2
20260504192519 77 105 1.7 5.2 0.00 0.00 0.00 36 1013.4
20260504191519 77 300 2.6 7.8 0.00 0.00 0.00 36 1013.5
20260504190539 78 101 1.7 5.2 0.00 0.00 0.00 35 1013.8
20260504185519 77 244 1.7 3.5 0.00 0.00 0.00 36 1013.8
20260504184516 76 90 1.7 4.3 0.00 0.00 0.00 36 1013.9
20260504183617 76 295 1.7 6.1 0.00 0.00 0.00 37 1014.0
20260504182520 75 298 2.6 7.0 0.00 0.00 0.00 37 1014.2
20260504181517 75 305 2.6 6.1 0.00 0.00 0.00 37 1014.2
20260504180618 75 297 2.6 7.0 0.00 0.00 0.00 37 1014.2
20260504175520 74 58 0.9 4.3 0.00 0.00 0.00 36 1014.3
20260504174520 74 319 1.7 3.5 0.00 0.00 0.00 36 1014.4
20260504173538 74 229 1.7 6.1 0.00 0.00 0.00 37 1014.5
20260504172538 73 336 0.9 4.3 0.00 0.00 0.00 37 1014.6
20260504171518 72 337 2.6 6.1 0.00 0.00 0.00 37 1014.7
20260504170521 73 54 1.7 7.0 0.00 0.00 0.00 37 1014.8
20260504150537 69 88 1.7 4.3 0.00 0.00 0.00 41 1016.1
20260504140639 66 138 0.9 2.6 0.00 0.00 0.00 48 1016.3
20260504130519 58 118 0.9 2.6 0.00 0.00 0.00 65 1016.4
20260504110557 41 98 0.9 0.9 0.00 0.00 0.00 83 1016.6
20260504100525 40 77 0.0 0.0 0.00 0.00 0.00 82 1016.3